Simultaneous Nadir Overpasses (SNOs) Predictions

Prediction of SNOs between METOP-B and TERRA Satellite Orbit:

Table of predicted SNOs for the next 14.0 days since TLE Epoch: 7/16/2016
Index Date (METOP-B) Time (METOP-B) Lat,Lon (METOP-B) SZA (METOP-B ) Date (TERRA) Time (TERRA) Lat,Lon (TERRA) SZA (TERRA ) Distance(km) Time Diff (sec)
1 07/18/2016 15:51:11 -81.27, 169.10 116.89 07/18/2016 15:51:45 -81.28, 168.98 116.88 2.09 34
2 07/18/2016 16:41:51 81.28, -23.20 63.17 07/18/2016 16:41:11 81.28, -23.34 63.14 2.30 40
3 07/21/2016 11:25:37 -81.27,-124.83 116.40 07/21/2016 11:26:00 -81.27,-124.74 116.38 1.41 23
4 07/21/2016 12:16:17 81.27, 42.82 63.65 07/21/2016 12:15:26 81.27, 42.91 63.63 1.59 51
5 07/24/2016 07:00:01 -81.28, -57.99 115.78 07/24/2016 07:00:14 -81.28, -58.11 115.78 2.04 13
6 07/
